| time (UTC) | temp C | wind direction | speed KPH | gust KPH | rain 1hr cm | rain 24hr cm | rain mn cm | humidity % | barometer mb |
| 20260503053505 | 25 | 0 | 0.0 | 0.0 | 0.00 | 0.05 | 0.00 | 69 | 1022.0 |
| 20260503051004 | 25 | 0 | 0.0 | 0.0 | 0.00 | 0.05 | 0.00 | 69 | 1022.0 |
| 20260503050005 | 25 | 0 | 0.0 | 0.0 | 0.00 | 0.05 | 0.00 | 69 | 1022.0 |
| 20260503045004 | 25 | 0 | 0.0 | 0.0 | 0.00 | 0.05 | 0.00 | 69 | 1021.7 |
| 20260503044504 | 25 | 0 | 0.0 | 0.0 | 0.00 | 0.05 | 0.00 | 69 | 1021.6 |
| 20260503043505 | 25 | 0 | 0.0 | 0.0 | 0.00 | 0.05 | 0.00 | 69 | 1021.7 |
| 20260503043005 | 25 | 0 | 0.0 | 0.0 | 0.00 | 0.05 | 0.00 | 69 | 1021.6 |
| 20260503041504 | 25 | 0 | 0.0 | 0.0 | 0.00 | 0.05 | 0.00 | 69 | 1021.5 |
| 20260503041004 | 25 | 0 | 0.0 | 0.0 | 0.00 | 0.05 | 0.00 | 69 | 1021.6 |
| 20260503035505 | 25 | 0 | 0.0 | 0.0 | 0.00 | 0.05 | 0.00 | 69 | 1021.6 |
| 20260503035005 | 25 | 0 | 0.0 | 0.0 | 0.00 | 0.05 | 0.00 | 69 | 1021.6 |
| 20260503034505 | 25 | 0 | 0.0 | 0.0 | 0.00 | 0.05 | 0.00 | 69 | 1021.6 |
| 20260503034004 | 25 | 0 | 0.0 | 0.0 | 0.00 | 0.05 | 0.00 | 69 | 1021.6 |
| 20260503033505 | 25 | 0 | 0.0 | 0.0 | 0.00 | 0.05 | 0.00 | 69 | 1021.7 |
| 20260503033004 | 25 | 0 | 0.0 | 0.0 | 0.00 | 0.05 | 0.00 | 69 | 1021.8 |
| 20260503032504 | 25 | 0 | 0.0 | 0.0 | 0.00 | 0.05 | 0.00 | 69 | 1021.8 |
| 20260503032005 | 25 | 0 | 0.0 | 0.0 | 0.00 | 0.05 | 0.00 | 69 | 1021.9 |
| 20260503023504 | 25 | 0 | 0.0 | 0.0 | 0.00 | 0.05 | 0.00 | 69 | 1022.1 |
| 20260503022005 | 25 | 0 | 0.0 | 0.0 | 0.00 | 0.05 | 0.00 | 69 | 1022.4 |
| 20260503021005 | 25 | 0 | 0.0 | 0.0 | 0.00 | 0.05 | 0.00 | 69 | 1022.4 |
| 20260503020505 | 25 | 0 | 0.0 | 0.0 | 0.00 | 0.05 | 0.00 | 69 | 1022.2 |
| 20260503015505 | 25 | 0 | 0.0 | 0.0 | 0.00 | 0.05 | 0.00 | 69 | 1022.2 |
| 20260503015004 | 25 | 0 | 0.0 | 3.2 | 0.00 | 0.05 | 0.00 | 69 | 1022.3 |
| 20260503014005 | 25 | 179 | 3.2 | 8.0 | 0.00 | 0.05 | 0.00 | 69 | 1022.5 |
| 20260503013004 | 25 | 82 | 8.0 | 11.3 | 0.00 | 0.05 | 0.00 | 69 | 1022.6 |
| 20260503012505 | 26 | 193 | 3.2 | 8.0 | 0.00 | 0.05 | 0.00 | 71 | 1022.9 |
| 20260503012004 | 26 | 151 | 1.6 | 11.3 | 0.00 | 0.05 | 0.00 | 71 | 1023.0 |
| 20260503011505 | 26 | 120 | 4.8 | 11.3 | 0.00 | 0.05 | 0.00 | 69 | 1023.0 |
| 20260503010504 | 26 | 164 | 4.8 | 9.7 | 0.00 | 0.05 | 0.00 | 69 | 1023.0 |
| 20260503005504 | 26 | 158 | 4.8 | 9.7 | 0.00 | 0.05 | 0.00 | 70 | 1023.2 |
| 20260503004503 | 25 | 184 | 0.0 | 4.8 | 0.00 | 0.05 | 0.00 | 71 | 1023.4 |
| 20260503004002 | 25 | 187 | 3.2 | 4.8 | 0.00 | 0.05 | 0.00 | 71 | 1023.4 |
| 20260503003003 | 23 | 0 | 0.0 | 0.0 | 0.00 | 0.05 | 0.00 | 79 | 1023.6 |
| 20260503001502 | 23 | 0 | 0.0 | 0.0 | 0.00 | 0.05 | 0.00 | 79 | 1024.0 |
| 20260503000002 | 23 | 6 | 0.0 | 0.0 | 0.00 | 0.05 | 0.00 | 79 | 1024.1 |
| 20260502235504 | 23 | 146 | 0.0 | 1.6 | 0.00 | 0.05 | 0.00 | 79 | 1024.0 |
| 20260502235002 | 23 | 146 | 1.6 | 1.6 | 0.00 | 0.05 | 0.00 | 79 | 1024.1 |
| 20260502234502 | 23 | 292 | 1.6 | 1.6 | 0.00 | 0.05 | 0.00 | 78 | 1024.1 |
| 20260502234002 | 23 | 125 | 1.6 | 3.2 | 0.00 | 0.05 | 0.00 | 78 | 1024.1 |
| 20260502233503 | 23 | 292 | 1.6 | 3.2 | 0.00 | 0.05 | 0.00 | 78 | 1024.1 |
| 20260502233002 | 23 | 244 | 0.0 | 0.0 | 0.00 | 0.05 | 0.00 | 80 | 1024.1 |
| 20260502232002 | 23 | 255 | 0.0 | 0.0 | 0.00 | 0.05 | 0.00 | 79 | 1024.3 |
| 20260502231003 | 22 | 312 | 0.0 | 0.0 | 0.00 | 0.05 | 0.00 | 81 | 1024.4 |
| 20260502225503 | 22 | 217 | 0.0 | 3.2 | 0.00 | 0.05 | 0.20 | 85 | 1024.3 |
| 20260502225003 | 21 | 265 | 0.0 | 3.2 | 0.00 | 0.05 | 0.20 | 85 | 1024.2 |
| 20260502224503 | 21 | 265 | 1.6 | 3.2 | 0.00 | 0.05 | 0.20 | 85 | 1024.2 |
| 20260502223503 | 21 | 277 | 0.0 | 3.2 | 0.00 | 0.05 | 0.20 | 85 | 1024.1 |
| 20260502222503 | 21 | 323 | 0.0 | 3.2 | 0.00 | 0.05 | 0.20 | 85 | 1024.1 |
| 20260502221502 | 21 | 288 | 0.0 | 3.2 | 0.00 | 0.08 | 0.20 | 85 | 1024.0 |
| 20260502220003 | 20 | 239 | 0.0 | 3.2 | 0.00 | 0.08 | 0.20 | 87 | 1023.7 |
| 20260502214003 | 19 | 204 | 1.6 | 3.2 | 0.00 | 0.08 | 0.20 | 91 | 1023.6 |
| 20260502213002 | 18 | 253 | 1.6 | 3.2 | 0.00 | 0.08 | 0.20 | 93 | 1023.6 |
| 20260502210002 | 16 | 223 | 0.0 | 3.2 | 0.00 | 0.08 | 0.20 | 100 | 1023.5 |
| 20260502204003 | 15 | 228 | 0.0 | 3.2 | 0.00 | 0.08 | 0.20 | 100 | 1023.2 |
| 20260502202002 | 15 | 234 | 0.0 | 3.2 | 0.00 | 0.10 | 0.20 | 100 | 1023.2 |
| 20260502201003 | 15 | 249 | 0.0 | 0.0 | 0.00 | 0.10 | 0.20 | 100 | 1023.2 |
| 20260502200503 | 15 | 215 | 0.0 | 0.0 | 0.00 | 0.10 | 0.20 | 100 | 1023.0 |
| 20260502200002 | 15 | 220 | 0.0 | 0.0 | 0.00 | 0.10 | 0.20 | 100 | 1022.8 |
| 20260502195503 | 15 | 227 | 0.0 | 0.0 | 0.00 | 0.10 | 0.20 | 100 | 1022.9 |
| 20260502194004 | 15 | 228 | 0.0 | 0.0 | 0.00 | 0.10 | 0.20 | 100 | 1022.6 |
| 20260502193503 | 15 | 228 | 0.0 | 0.0 | 0.00 | 0.10 | 0.20 | 100 | 1022.6 |
| 20260502192002 | 15 | 229 | 0.0 | 0.0 | 0.00 | 0.10 | 0.20 | 100 | 1022.6 |
| 20260502191003 | 15 | 232 | 0.0 | 0.0 | 0.00 | 0.10 | 0.20 | 100 | 1022.6 |
| 20260502190503 | 15 | 232 | 0.0 | 0.0 | 0.00 | 0.10 | 0.20 | 100 | 1022.6 |
| 20260502190005 | 15 | 232 | 0.0 | 0.0 | 0.00 | 0.10 | 0.20 | 100 | 1022.5 |
| 20260502185503 | 15 | 232 | 0.0 | 0.0 | 0.00 | 0.10 | 0.20 | 100 | 1022.5 |
| 20260502184502 | 15 | 234 | 0.0 | 0.0 | 0.00 | 0.10 | 0.20 | 100 | 1022.5 |
| 20260502184004 | 15 | 234 | 0.0 | 0.0 | 0.00 | 0.10 | 0.20 | 100 | 1022.4 |
| 20260502183002 | 15 | 234 | 0.0 | 0.0 | 0.00 | 0.10 | 0.20 | 100 | 1022.3 |
| 20260502181502 | 15 | 231 | 0.0 | 0.0 | 0.00 | 0.10 | 0.20 | 100 | 1022.3 |
| 20260502181002 | 15 | 231 | 0.0 | 0.0 | 0.00 | 0.10 | 0.20 | 100 | 1022.3 |
| 20260502163003 | 16 | 229 | 0.0 | 0.0 | 0.00 | 0.10 | 0.20 | 98 | 1022.7 |
| 20260502151003 | 17 | 243 | 0.0 | 0.0 | 0.00 | 0.10 | 0.20 | 96 | 1023.1 |
| 20260502150504 | 17 | 234 | 0.0 | 0.0 | 0.00 | 0.10 | 0.20 | 96 | 1023.1 |
| 20260502123503 | 18 | 211 | 1.6 | 3.2 | 0.00 | 0.10 | 0.20 | 93 | 1023.3 |
| 20260502123004 | 18 | 206 | 1.6 | 4.8 | 0.00 | 0.10 | 0.20 | 93 | 1023.4 |
| 20260502122503 | 18 | 217 | 1.6 | 4.8 | 0.00 | 0.10 | 0.20 | 93 | 1023.3 |
| 20260502121503 | 18 | 210 | 0.0 | 0.0 | 0.00 | 0.10 | 0.20 | 93 | 1023.5 |
| 20260502121004 | 18 | 229 | 0.0 | 0.0 | 0.00 | 0.10 | 0.20 | 93 | 1023.6 |
| 20260502115503 | 18 | 206 | 0.0 | 0.0 | 0.00 | 0.10 | 0.20 | 93 | 1023.8 |
| 20260502112003 | 19 | 220 | 1.6 | 3.2 | 0.00 | 0.10 | 0.20 | 94 | 1023.8 |
| 20260502111502 | 19 | 229 | 1.6 | 3.2 | 0.00 | 0.10 | 0.20 | 94 | 1023.8 |